Location: *
(44.3683°N, 6.6958°E)
Time: 12:01:42
(UTC+00:00)

Cosmos 2228 - Pass Details

Date: 14 October 2019
Orbit: 588 x 619 km, 82.5° (Epoch: 21 November)

Event Time Altitude Azimuth Distance (km) Brightness Sun altitude
Rises 17:45:59 0° 182° (S) 2,879 6.5 -10.5°
Reaches altitude 10° 17:48:12 10° 180° (S) 1,977 5.7 -10.9°
Maximum altitude 17:52:34 73° 96° (E) 648 3.0 -11.7°
Drops below altitude 10° 17:56:57 10° 12° (NNE) 1,980 5.5 -12.5°
Sets 17:59:10 0° 11° (N) 2,884 6.4 -12.9°
